Flag Island, MN

3:26 AM CDT on July 23, 2017 (GMT -0500)
Flag Island

Weather History for KFGN - January, 2014

Change the Weather History Date:

Tuesday, January 7, 2014

  Actual Average Record
Temperature  
Mean Temperature -14 °F -  
Max Temperature -5 °F 9 °F 50 °F (2003)
Min Temperature -23 °F -1 °F -23 °F (1997)
Degree Days  
Heating Degree Days 79    
Moisture  
Dew Point -21 °F    
Average Humidity 74    
Maximum Humidity 84    
Minimum Humidity 69    
Precipitation  
Precipitation 0.00 in - - ()
Sea Level Pressure  
Sea Level Pressure 30.04 in    
Wind  
Wind Speed 8 mph (WNW)    
Max Wind Speed 14 mph    
Max Gust Speed 17 mph    
Visibility 10 miles    
Events      
Averages and records for this station are not official NWS values.
T = Trace of Precipitation, MM = Missing Value Source: NWS Daily Summary

Daily Weather History Graph

Daily Weather History Graph

Search for Another Location

Airport or City:

Trip Planner

Search our weather history database for the weather conditions in past years. The results will help you decide how hot, cold, wet, or windy it might be!

Date:

Astronomy

Jan. 07, 2014 Rise Set
Actual Time 8:13 AM CST 4:38 PM CST
Civil Twilight 7:36 AM CST 5:15 PM CST
Nautical Twilight 6:56 AM CST 5:55 PM CST
Astronomical Twilight 6:17 AM CST 6:34 PM CST
Moon 11:22 AM CST (1/7) No Moon Set
Length of Visible Light 9h 38m
Length of Day
8h 24m
Waxing Crescent, 46% of the Moon is Illuminated
Jan 7
Waxing Crescent
Jan 7
First Quarter
Jan 15
Full
Jan 23
Last Quarter
Jan 30
New

Hourly Weather History & Observations

Time (CST) Temp. Windchill Dew Point Humidity Pressure Visibility Wind Dir Wind Speed Gust Speed Precip Events Conditions
12:13 AM -23.8 °F -39.8 °F -29.2 °F 76% 29.95 in 10.0 mi SW 5.8 mph - N/A   Clear
12:33 AM -23.8 °F -39.8 °F -29.2 °F 76% 29.94 in 10.0 mi SW 5.8 mph - N/A   Clear
12:53 AM -23.8 °F -39.8 °F -29.2 °F 76% 29.94 in 10.0 mi SW 5.8 mph - N/A   Clear
1:13 AM -23.8 °F -37.7 °F -29.2 °F 76% 29.94 in 10.0 mi SW 4.6 mph - N/A   Clear
1:33 AM -23.8 °F -41.6 °F -29.2 °F 76% 29.93 in 10.0 mi WSW 6.9 mph - N/A   Clear
1:53 AM -22.0 °F -37.7 °F -27.4 °F 76% 29.93 in 10.0 mi WSW 5.8 mph - N/A   Clear
2:13 AM -20.2 °F -38.8 °F -27.4 °F 69% 29.94 in 10.0 mi West 8.1 mph - N/A   Clear
2:33 AM -20.2 °F -40.1 °F -25.6 °F 76% 29.94 in 10.0 mi West 9.2 mph - N/A   Clear
2:53 AM -20.2 °F -40.1 °F -25.6 °F 76% 29.94 in 10.0 mi West 9.2 mph - N/A   Clear
3:13 AM -20.2 °F -38.8 °F -25.6 °F 76% 29.94 in 10.0 mi West 8.1 mph - N/A   Clear
3:33 AM -20.2 °F -43.4 °F -25.6 °F 76% 29.94 in 10.0 mi WNW 12.7 mph - N/A   Clear
3:53 AM -20.2 °F -40.1 °F -25.6 °F 76% 29.94 in 10.0 mi WNW 9.2 mph - N/A   Clear
4:14 AM -18.4 °F -36.6 °F -25.6 °F 70% 29.95 in 10.0 mi NW 8.1 mph - N/A   Clear
4:33 AM -18.4 °F -36.6 °F -25.6 °F 70% 29.95 in 10.0 mi NW 8.1 mph - N/A   Clear
4:53 AM -18.4 °F -37.9 °F -25.6 °F 70% 29.95 in 10.0 mi WNW 9.2 mph - N/A   Scattered Clouds
5:14 AM -18.4 °F -39.1 °F -25.6 °F 70% 29.95 in 10.0 mi WNW 10.4 mph - N/A   Mostly Cloudy
5:33 AM -18.4 °F -39.1 °F -25.6 °F 70% 29.96 in 10.0 mi NW 10.4 mph - N/A   Scattered Clouds
5:53 AM -20.2 °F -42.4 °F -25.6 °F 76% 29.96 in 10.0 mi WNW 11.5 mph - N/A   Clear
6:14 AM -20.2 °F -41.3 °F -25.6 °F 76% 29.96 in 10.0 mi WNW 10.4 mph - N/A   Clear
6:33 AM -20.2 °F -40.1 °F -25.6 °F 76% 29.96 in 10.0 mi WNW 9.2 mph - N/A   Clear
6:53 AM -20.2 °F -38.8 °F -25.6 °F 76% 29.96 in 10.0 mi WNW 8.1 mph - N/A   Clear
7:14 AM -20.2 °F -37.3 °F -27.4 °F 69% 29.97 in 10.0 mi West 6.9 mph - N/A   Clear
7:33 AM -20.2 °F -38.8 °F -25.6 °F 76% 29.97 in 10.0 mi West 8.1 mph - N/A   Scattered Clouds
7:53 AM -20.2 °F -38.8 °F -25.6 °F 76% 29.97 in 10.0 mi WNW 8.1 mph - N/A   Overcast
8:14 AM -20.2 °F -38.8 °F -25.6 °F 76% 29.98 in 10.0 mi NW 8.1 mph - N/A   Overcast
8:33 AM -18.4 °F -37.9 °F -25.6 °F 70% 29.99 in 10.0 mi WNW 9.2 mph - N/A   Overcast
8:53 AM -18.4 °F -36.6 °F -25.6 °F 70% 30.00 in 10.0 mi WNW 8.1 mph - N/A   Overcast
9:13 AM -18.4 °F -37.9 °F -25.6 °F 70% 30.00 in 10.0 mi WNW 9.2 mph - N/A   Overcast
9:33 AM -18.4 °F -37.9 °F -23.8 °F 76% 30.01 in 10.0 mi WNW 9.2 mph - N/A   Overcast
9:53 AM -18.4 °F -37.9 °F -23.8 °F 76% 30.02 in 10.0 mi WNW 9.2 mph - N/A   Overcast
10:13 AM -16.6 °F -36.8 °F -23.8 °F 70% 30.02 in 10.0 mi WNW 10.4 mph - N/A   Overcast
10:33 AM -16.6 °F -36.8 °F -22.0 °F 76% 30.03 in 10.0 mi WNW 10.4 mph - N/A   Overcast
10:53 AM -14.8 °F -34.6 °F -20.2 °F 77% 30.03 in 10.0 mi WNW 10.4 mph - N/A   Overcast
11:13 AM -14.8 °F -34.6 °F -20.2 °F 77% 30.03 in 10.0 mi WNW 10.4 mph - N/A   Overcast
11:33 AM -14.8 °F -33.5 °F -18.4 °F 84% 30.03 in 10.0 mi WNW 9.2 mph - N/A   Overcast
11:53 AM -11.2 °F -30.1 °F -18.4 °F 70% 30.03 in 10.0 mi WNW 10.4 mph - N/A   Overcast
12:13 PM -11.2 °F -32.1 °F -18.4 °F 70% 30.03 in 10.0 mi WNW 12.7 mph - N/A   Overcast
12:33 PM -9.4 °F -30.6 °F -16.6 °F 71% 30.03 in 10.0 mi WNW 13.8 mph - N/A   Overcast
12:53 PM -9.4 °F -28.9 °F -16.6 °F 71% 30.02 in 10.0 mi West 11.5 mph - N/A   Overcast
1:13 PM -7.6 °F -26.6 °F -14.8 °F 71% 30.03 in 10.0 mi WNW 11.5 mph - N/A   Overcast
1:33 PM -7.6 °F -26.6 °F -14.8 °F 71% 30.03 in 10.0 mi WNW 11.5 mph - N/A   Overcast
1:54 PM -7.6 °F -24.6 °F -14.8 °F 71% 30.03 in 10.0 mi West 9.2 mph - N/A   Overcast
2:13 PM -7.6 °F -23.4 °F -14.8 °F 71% 30.04 in 10.0 mi WNW 8.1 mph - N/A   Overcast
2:33 PM -7.6 °F -28.3 °F -14.8 °F 71% 30.05 in 10.0 mi WNW 13.8 mph 17.3 mph N/A   Overcast
2:53 PM -7.6 °F -25.7 °F -14.8 °F 71% 30.06 in 10.0 mi WNW 10.4 mph - N/A   Overcast
3:13 PM -7.6 °F -23.4 °F -14.8 °F 71% 30.06 in 10.0 mi WNW 8.1 mph - N/A   Overcast
3:33 PM -5.8 °F -23.4 °F -13.0 °F 71% 30.08 in 10.0 mi WNW 10.4 mph - N/A   Overcast
3:53 PM -5.8 °F -23.4 °F -13.0 °F 71% 30.08 in 10.0 mi West 10.4 mph - N/A   Overcast
4:13 PM -5.8 °F -21.2 °F -13.0 °F 71% 30.09 in 10.0 mi West 8.1 mph - N/A   Overcast
4:33 PM -5.8 °F -22.4 °F -13.0 °F 71% 30.09 in 10.0 mi West 9.2 mph - N/A   Overcast
4:53 PM -5.8 °F -19.9 °F -13.0 °F 71% 30.10 in 10.0 mi West 6.9 mph - N/A   Overcast
5:13 PM -5.8 °F -23.4 °F -13.0 °F 71% 30.10 in 10.0 mi West 10.4 mph - N/A   Overcast
5:34 PM -7.6 °F -25.7 °F -13.0 °F 77% 30.10 in 10.0 mi West 10.4 mph - N/A   Overcast
5:53 PM -7.6 °F -25.7 °F -13.0 °F 77% 30.11 in 10.0 mi West 10.4 mph - N/A   Overcast
6:13 PM -7.6 °F -26.6 °F -14.8 °F 71% 30.11 in 10.0 mi WNW 11.5 mph - N/A   Overcast
6:33 PM -7.6 °F -25.7 °F -14.8 °F 71% 30.11 in 10.0 mi WNW 10.4 mph - N/A   Overcast
6:53 PM -9.4 °F -27.9 °F -14.8 °F 77% 30.12 in 10.0 mi West 10.4 mph - N/A   Overcast
7:13 PM -9.4 °F -29.8 °F -16.6 °F 71% 30.12 in 10.0 mi WNW 12.7 mph - N/A   Overcast
7:33 PM -11.2 °F -31.1 °F -16.6 °F 77% 30.14 in 10.0 mi WNW 11.5 mph - N/A   Scattered Clouds
7:53 PM -11.2 °F -27.8 °F -18.4 °F 70% 30.15 in 10.0 mi West 8.1 mph - N/A   Mostly Cloudy
8:14 PM -11.2 °F -29.0 °F -18.4 °F 70% 30.15 in 10.0 mi West 9.2 mph - N/A   Overcast
8:33 PM -11.2 °F -24.8 °F -18.4 °F 70% 30.15 in 10.0 mi West 5.8 mph - N/A   Overcast
8:53 PM -13.0 °F -30.0 °F -18.4 °F 77% 30.15 in 10.0 mi West 8.1 mph - N/A   Overcast
9:14 PM -11.2 °F -29.0 °F -18.4 °F 70% 30.15 in 10.0 mi WNW 9.2 mph - N/A   Overcast
9:33 PM -11.2 °F -27.8 °F -18.4 °F 70% 30.16 in 10.0 mi West 8.1 mph - N/A   Overcast
9:53 PM -13.0 °F -27.0 °F -18.4 °F 77% 30.16 in 10.0 mi West 5.8 mph - N/A   Overcast
10:14 PM -13.0 °F -27.0 °F -18.4 °F 77% 30.17 in 10.0 mi West 5.8 mph - N/A   Overcast
10:33 PM -13.0 °F -22.7 °F -18.4 °F 77% 30.17 in 10.0 mi WSW 3.5 mph - N/A   Overcast
10:53 PM -14.8 °F -27.2 °F -18.4 °F 84% 30.17 in 10.0 mi West 4.6 mph - N/A   Scattered Clouds
11:14 PM -14.8 °F -27.2 °F -18.4 °F 84% 30.17 in 10.0 mi West 4.6 mph - N/A   Clear
11:33 PM -14.8 °F -30.8 °F -18.4 °F 84% 30.17 in 10.0 mi West 6.9 mph - N/A   Clear
11:53 PM -14.8 °F -24.8 °F -18.4 °F 84% 30.18 in 10.0 mi West 3.5 mph - N/A   Clear